Showing default

KSLV-II DUMMY, 52895

Orbit data source: Space-Track

KSLV-II DUMMY, 52895 is a payload satellite owned by KARI (KR) in SSO that was launched on Tue, 21 Jun 2022 UTC via an NURI launch vehicle from the Naro Space Center, South Korea (NSC). Payload-class satellites include a variety of spacecraft equipped with specific instruments for various scientific and technological missions. These include communications satellites like Starlink; space stations such as the ISS; scientific satellites like the Hubble; Earth observation satellites from companies like Planet Labs, Umbra, and HawkEye 360; GPS; miniature CubeSats for education and research; and military/defense satellites.

Loading next visibility...
Identifier
52895, 2022-065B
Orbit
SSO
Last TLE update
14 hours ago
Origin
Manufacturer
KARI
Mission
Operational Civil Technology
Bus & Motor
Unknown
Mass
1,300 kg wet, 1,300 kg dry
Launch date (UTC)
2022-06-21 (3 years ago)
Launch vehicle
NURI
Launch site
Naro Space Center, South Korea (NSC)
Object type
Payload
Rocket body
Debris
Shape & HBR
Box, 2 m
Radar Cross Section
2.500 m², Medium (>0.1 m² and < 1m²)

Expand to show TLE details & history

TLE from 14 hours ago
0 KSLV-II DUMMY
1 52895U 22065B   25187.92531964  .00000024  00000-0  14979-4 0  9996
2 52895  98.1834 326.9732 0009019  38.0472 322.1362 14.58600854162020
Epoch: 2025-07-06T22:12Z
TLE epoch observation values (Epoch: 2025-07-06T22:12:27.616Z)
Latitude
-0.00012°
Longitude
68.71613°
Altitude
695.642 km
Speed
7.511 km/s
True Right ascension
21h 47m 53s
True Declination
0° 00' 00"
Sunlit
Object was in full shadow at epoch
Visualization orbit readout
Latitude
75.00307°
Longitude
37.00001°
Altitude
705.682 km
Speed
7.512 km/s
Apparent Right ascension
13h 13m 41s
Apparent Declination
32° 25' 60"
Sunlit
Object is in daylight
Visualization observer readout
Local Sidereal Time
23:46:11
Azimuth
341.012° N
Elevation
-14.869°
Doppler factor
1
Orbital elements
Apogee altitude
701.157 km
Perigee altitude
688.399 km
Semi-major axis
7,072.915 km
Eccentricity
0.0009
Inclination
98.1834°
RAAN
326.9732°
Arg. of periapsis
38.0472°
True anomaly
Unknown
Mean anomaly
322.1362°
Eccentric anomaly
Unknown
Mean motion
3.64876 °/min
Orbital period
98.66 mins
BSTAR
0.000014979
Loading maneuver chart data...
Loading SW <> Apogee altitude chart data...
Loading historical data...
Loading historical data...
Loading historical data...
Loading historical data...
Loading historical data...
Loading historical data...
Loading historical data...

KSLV-II DUMMY Visibility forecast

Observer location: undefined°, undefined°

Span
Click to sort rows by Start time (UTC) header in descending order
Start Az.
Max El. time (UTC)
Max El. Az.
Max El.
End time (UTC)
End Az.
8 mins2025-07-07 21:49:52.332Z24.656° NE2025-07-07 21:53:52.332Z99.509° ESE38.834°2025-07-07 21:57:52.332Z175.597° S
4 mins2025-07-07 23:29:52.332Z314.155° NW2025-07-07 23:30:52.332Z299.39° NW15.551°2025-07-07 23:33:52.332Z259.251° W
7 mins2025-07-08 08:54:52.332Z144.428° SSE2025-07-08 08:57:52.332Z91.594° ESE38.013°2025-07-08 09:01:52.332Z0.27° NNE
|